Location: Newark
(7.0858°N, 171.3717°E)
Time: 03:16:21
(UTC+00:00)

Hubble Space Telescope - Pass Details

Date: 05 October 2021
Orbit: 535 x 538 km, 28.5° (Epoch: 15 October)

Event Time Altitude Azimuth Distance (km) Brightness Sun altitude
Exits shadow 16:55:06 38° 358° (N) 823 1.6 -22.3°
Drops below altitude 10° 16:58:20 10° 43° (NE) 1,776 3.9 -21.5°
Sets 17:00:41 0° 51° (NE) 2,666 5.1 -20.9°
